Showing default

SOLRAD 1 (GREB), 46

Orbit data source: Space-Track

SOLRAD 1 (GREB), 46 is a payload satellite owned by NRL (US) in LEO that was launched on Wed, 22 Jun 1960 UTC via a THOR ABLESTAR launch vehicle from the Air Force Eastern Test Range (AFETR). Payload-class satellites include a variety of spacecraft equipped with specific instruments for various scientific and technological missions. These include communications satellites like Starlink; space stations such as the ISS; scientific satellites like the Hubble; Earth observation satellites from companies like Planet Labs, Umbra, and HawkEye 360; GPS; miniature CubeSats for education and research; and military/defense satellites.

Loading next visibility...
Identifier
46, 1960-007B
Orbit
LEO
Country
Flag of USUS
Related business
Manufacturer
NRL
Mission
Spacecraft
Bus & Motor
NRL 20", Unknown motor
Mass
19 kg wet, 19 kg dry
Launch date (UTC)
1960-06-22 (66 years ago)
Launch vehicle
THOR ABLESTAR
Launch site
Air Force Eastern Test Range (AFETR)
Object type
Payload
Rocket body
Debris
Shape & HBR
Unknown
Radar Cross Section
Medium (>0.1 m² and <1 m²)

Expand to show TLE details & history
Last TLE update: 4 hours ago

TLE from 4 hours ago
0 SOLRAD 1 (GREB)
1    46U 60007B   26037.15095207  .00000893  00000-0  18465-3 0  9997
2    46  66.6863 225.4296 0191789  29.9239 331.2670 14.54635276437948
Epoch: 2026-02-06T03:37Z
TLE epoch observation values (Epoch: 2026-02-06T03:37:22.258Z)
Latitude
-0.00002°
Longitude
34.7939°
Altitude
594.07 km
Speed
7.626 km/s
True Right ascension
15h 01m 43s
True Declination
0° 00' 00"
Sunlit
Object was in daylight at epoch
Visualization orbit readout
Latitude
Unknown
Longitude
Unknown
Altitude
Unknown
Speed
Unknown
Apparent Right ascension
Unknown
Apparent Declination
Unknown
Sunlit
N/A
Visualization observer readout
Local Sidereal Time
09:24:46
Azimuth
Unknown
Elevation
Unknown
Doppler factor
Unknown
Orbital elements
Apogee altitude
844.828 km
Perigee altitude
572.985 km
Semi-major axis
7,087.043 km
Eccentricity
0.01918
Inclination
66.6863°
RAAN
225.4296°
Arg. of periapsis
29.9239°
True anomaly
330.18788°
Mean anomaly
331.267°
Eccentric anomaly
330.72973°
Mean motion
3.63786 °/min
Orbital period
98.96 mins
BSTAR
0.00018465
Loading maneuver chart data...
Computing Atmospheric mass density...
Loading historical data...
Loading historical data...
Loading historical data...
Loading historical data...
Loading historical data...
Loading historical data...
Loading historical data...

Documentation

Showing up to 5 results
|